This is the latest recevied weather packets stored in our database for station/object IU1INZ-13. If no packets are shown the sender has not sent any weather packets the latest 10 day(s).
| Time | Temp. | Humidity | Pressure | Rain* | Wind** | Luminosity | Snow |
|---|---|---|---|---|---|---|---|
| 1777885232 | 15.56° C | 59% | 1019 hPa | 0 mm | - | - | - |
| 1777884338 | 15.56° C | 60% | 1018.8 hPa | 0 mm | - | - | - |
| 1777883435 | 15° C | 56% | 1019 hPa | 0 mm | - | - | - |
| 1777882535 | 15° C | 60% | 1018.8 hPa | 0 mm | - | - | - |
| 1777881639 | 14.44° C | 61% | 1018.6 hPa | 0 mm | - | - | - |
| 1777880735 | 14.44° C | 63% | 1018.5 hPa | 0 mm | - | - | - |
| 1777879841 | 14.44° C | 63% | 1018.4 hPa | 0 mm | - | - | - |
| 1777878936 | 14.44° C | 62% | 1018.2 hPa | 0 mm | - | - | - |
| 1777878035 | 13.89° C | 61% | 1018.2 hPa | 0 mm | - | - | - |
| 1777877135 | 13.89° C | 66% | 1018.1 hPa | 0 mm | - | - | - |
| 1777876235 | 13.33° C | 68% | 1018.1 hPa | 0 mm | - | - | - |
| 1777875342 | 13.89° C | 69% | 1017.9 hPa | 0 mm | - | - | - |
| 1777874440 | 13.89° C | 66% | 1017.9 hPa | 0 mm | - | - | - |
| 1777873536 | 13.89° C | 64% | 1017.8 hPa | 0 mm | - | - | - |
| 1777872635 | 13.33° C | 75% | 1017.6 hPa | 0 mm | - | - | - |
| 1777871734 | 12.78° C | 79% | 1017.4 hPa | 0 mm | - | - | - |
| 1777870834 | 12.78° C | 82% | 1017.5 hPa | 0 mm | - | - | - |
| 1777869945 | 12.78° C | 81% | 1017.3 hPa | 0 mm | - | - | - |
| 1777869036 | 12.78° C | 81% | 1017.3 hPa | 0 mm | - | - | - |
| 1777868135 | 12.78° C | 81% | 1017.3 hPa | 0 mm | - | - | - |
| 1777867244 | 12.22° C | 80% | 1017 hPa | 0 mm | - | - | - |
| 1777866339 | 12.78° C | 79% | 1017.1 hPa | 0 mm | - | - | - |
| 1777865431 | 12.78° C | 80% | 1017 hPa | 0 mm | - | - | - |
| 1777864536 | 12.78° C | 79% | 1017.1 hPa | 0 mm | - | - | - |
| 1777863635 | 13.89° C | 76% | 1017.3 hPa | 0 mm | - | - | - |
* Rain latest hour (hover to see other rain measurements)
** Current wind speed in m/s (hover to see current wind gust speed)